This is the latest recevied weather packets stored in our database for station/object N5PA. If no packets are shown the sender has not sent any weather packets the latest 10 day(s).
| Time | Temp. | Humidity | Pressure | Rain* | Wind** | Luminosity | Snow |
|---|---|---|---|---|---|---|---|
| 1777675206 | 11.11° C | 54% | 1013.4 hPa | 3.3 mm | - | 1032 W/m² | - |
| 1777674905 | 11.67° C | 51% | 1013.4 hPa | 3.3 mm | - | 1032 W/m² | - |
| 1777674605 | 11.67° C | 50% | 1013.4 hPa | 3.56 mm | - | 1034 W/m² | - |
| 1777674306 | 11.67° C | 50% | 1013.6 hPa | 3.81 mm | - | 1032 W/m² | - |
| 1777674006 | 11.67° C | 50% | 1013.7 hPa | 4.06 mm | - | 1034 W/m² | - |
| 1777673704 | 11.67° C | 49% | 1013.7 hPa | 4.06 mm | - | 1034 W/m² | - |
| 1777673405 | 11.67° C | 50% | 1013.7 hPa | 4.32 mm | - | 1030 W/m² | - |
| 1777673104 | 11.67° C | 51% | 1013.6 hPa | 4.06 mm | - | 1030 W/m² | - |
| 1777672804 | 11.67° C | 51% | 1013.7 hPa | 4.06 mm | - | 1032 W/m² | - |
| 1777672505 | 11.67° C | 51% | 1013.5 hPa | 4.06 mm | - | 1034 W/m² | - |
| 1777672205 | 11.67° C | 52% | 1013.4 hPa | 4.06 mm | - | 1030 W/m² | - |
| 1777671904 | 11.67° C | 53% | 1013.6 hPa | 3.81 mm | - | 1034 W/m² | - |
| 1777671606 | 11.67° C | 54% | 1013.6 hPa | 3.56 mm | - | 1034 W/m² | - |
| 1777671305 | 11.67° C | 55% | 1013.4 hPa | 3.56 mm | - | 1035 W/m² | - |
| 1777671006 | 11.67° C | 56% | 1013.7 hPa | 3.56 mm | - | 1032 W/m² | - |
| 1777670705 | 11.67° C | 57% | 1013.8 hPa | 3.05 mm | - | 1032 W/m² | - |
| 1777670406 | 11.67° C | 58% | 1013.8 hPa | 2.79 mm | - | 1034 W/m² | - |
| 1777670106 | 11.67° C | 59% | 1013.9 hPa | 2.79 mm | - | 1034 W/m² | - |
| 1777669806 | 11.67° C | 59% | 1014 hPa | 2.54 mm | - | 1027 W/m² | - |
| 1777669504 | 11.67° C | 60% | 1014 hPa | 2.29 mm | - | 1034 W/m² | - |
| 1777669206 | 11.67° C | 60% | 1013.8 hPa | 2.54 mm | - | 1032 W/m² | - |
| 1777668906 | 11.67° C | 61% | 1013.7 hPa | 2.54 mm | - | 1032 W/m² | - |
| 1777668606 | 11.67° C | 61% | 1013.6 hPa | 2.54 mm | - | 1032 W/m² | - |
| 1777668306 | 11.67° C | 61% | 1013.5 hPa | 2.54 mm | - | 1034 W/m² | - |
| 1777668004 | 11.67° C | 63% | 1013.7 hPa | 2.54 mm | - | 1032 W/m² | - |
* Rain latest hour (hover to see other rain measurements)
** Current wind speed in m/s (hover to see current wind gust speed)